Location: Unspecified
(48.2082°N, 0.0000°E)
Time: 08:50:55
(UTC+00:00)

S-56A Canister/Altair - Pass Details

Date: 27 June 2019
Orbit: 632 x 2500 km, 38.9° (Epoch: 16 July)

Event Time Altitude Azimuth Distance (km) Brightness Sun altitude
Rises 19:03:26 0° 272° (W) 4,425 12.8 7.8°
Reaches altitude 10° 19:07:34 10° 258° (WSW) 3,092 11.6 7.2°
Maximum altitude 19:12:42 21° 213° (SSW) 1,989 9.8 6.4°
Drops below altitude 10° 19:16:45 10° 165° (SSE) 2,364 9.7 5.8°
Sets 19:19:26 0° 148° (SSE) 3,124 10.1 5.4°
